TimeCDT,TemperatureF,Dew PointF,Humidity,Sea Level PressureIn,VisibilityMPH,Wind Direction,Wind SpeedMPH,Gust SpeedMPH,PrecipitationIn,Events,Conditions,WindDirDegrees,DateUTC
12:53 AM,66.9,57.0,70,29.92,10.0,South,11.5,-,0.00,,Partly Cloudy,180,2013-05-09 05:53:00
1:53 AM,66.0,57.0,73,29.90,10.0,South,8.1,-,N/A,,Clear,190,2013-05-09 06:53:00
2:53 AM,68.0,57.0,68,29.88,10.0,South,12.7,-,N/A,,Partly Cloudy,190,2013-05-09 07:53:00
3:53 AM,64.9,57.0,75,29.89,10.0,South,6.9,-,N/A,,Overcast,190,2013-05-09 08:53:00
4:53 AM,63.0,57.0,81,29.86,10.0,West,3.5,-,N/A,,Partly Cloudy,260,2013-05-09 09:53:00
5:22 AM,62.6,57.2,82,29.91,10.0,SSW,8.1,-,N/A,,Mostly Cloudy,200,2013-05-09 10:22:00
5:46 AM,60.8,57.2,88,29.89,7.0,SSE,5.8,-,0.02,Rain,Light Rain,160,2013-05-09 10:46:00
5:53 AM,61.0,57.0,87,29.87,7.0,SSE,3.5,-,0.03,Rain,Rain,160,2013-05-09 10:53:00
6:16 AM,60.8,57.2,88,29.92,2.5,West,10.4,-,0.04,Rain-Thunderstorm,Thunderstorms and Rain,270,2013-05-09 11:16:00
6:53 AM,60.1,59.0,96,29.92,3.0,SW,8.1,-,0.34,Rain-Thunderstorm,Thunderstorms and Rain,220,2013-05-09 11:53:00
7:18 AM,60.8,59.0,94,29.92,4.0,SSW,6.9,-,0.05,Rain,Light Rain,200,2013-05-09 12:18:00
7:53 AM,60.1,59.0,96,29.91,5.0,WSW,4.6,-,0.05,,Overcast,250,2013-05-09 12:53:00
8:24 AM,60.8,60.8,100,29.93,10.0,South,4.6,-,N/A,,Scattered Clouds,170,2013-05-09 13:24:00
8:53 AM,61.0,60.1,97,29.91,10.0,SSE,6.9,-,N/A,,Scattered Clouds,160,2013-05-09 13:53:00
9:53 AM,64.0,60.1,87,29.92,10.0,SSE,13.8,-,N/A,,Scattered Clouds,160,2013-05-09 14:53:00
10:16 AM,64.4,60.8,88,29.95,10.0,South,11.5,-,N/A,,Mostly Cloudy,170,2013-05-09 15:16:00
10:53 AM,64.9,60.1,84,29.94,10.0,SSW,9.2,-,N/A,,Scattered Clouds,200,2013-05-09 15:53:00
12:53 PM,69.1,60.1,73,29.94,10.0,West,11.5,-,N/A,,Mostly Cloudy,280,2013-05-09 17:53:00
1:53 PM,72.0,60.1,66,29.92,10.0,West,8.1,-,N/A,,Mostly Cloudy,280,2013-05-09 18:53:00
2:53 PM,71.6,60.8,69,29.96,10.0,SW,12.7,-,N/A,,Overcast,220,2013-05-09 19:53:00
3:53 PM,73.9,59.0,59,29.92,10.0,SW,13.8,-,N/A,,Partly Cloudy,230,2013-05-09 20:53:00
4:53 PM,71.1,59.0,66,29.91,10.0,WSW,12.7,-,N/A,,Overcast,250,2013-05-09 21:53:00
5:53 PM,69.1,59.0,70,29.90,10.0,WSW,9.2,-,N/A,,Overcast,250,2013-05-09 22:53:00
6:53 PM,69.1,60.1,73,29.89,10.0,WSW,6.9,-,N/A,,Overcast,240,2013-05-09 23:53:00
7:53 PM,66.9,61.0,81,29.90,10.0,South,5.8,-,N/A,,Overcast,170,2013-05-10 00:53:00
8:53 PM,64.4,60.8,88,29.93,10.0,SSE,3.5,-,N/A,,Mostly Cloudy,160,2013-05-10 01:53:00
9:15 PM,66.2,60.8,83,29.94,10.0,SSE,5.8,-,N/A,,Overcast,150,2013-05-10 02:15:00
9:40 PM,62.6,59.0,88,29.95,10.0,SSE,6.9,-,N/A,,Overcast,150,2013-05-10 02:40:00
9:53 PM,63.0,60.1,90,29.94,10.0,SE,6.9,-,N/A,,Overcast,140,2013-05-10 02:53:00
10:53 PM,62.1,60.1,93,29.95,10.0,South,9.2,-,N/A,,Mostly Cloudy,170,2013-05-10 03:53:00
11:53 PM,62.6,59.0,88,29.94,10.0,South,6.9,-,N/A,,Overcast,170,2013-05-10 04:53:00